Weather History for Macon, GA

Change the Weather History Date:

Sunday, February 10, 2013

  Actual Average Record
Temperature  
Mean Temperature 52 °F 49 °F  
Max Temperature 67 °F 61 °F 81 °F (1932)
Min Temperature 36 °F 37 °F 16 °F (1971)
Degree Days  
Heating Degree Days 13 16  
Month to date heating degree days 167 167  
Since 1 July heating degree days 1381 1672  
Cooling Degree Days 0 0  
Month to date cooling degree days 0 0  
Year to date cooling degree days 18 1  
Growing Degree Days 1 (Base 50)    
Moisture  
Dew Point 46 °F    
Average Humidity 78    
Maximum Humidity 100    
Minimum Humidity 56    
Precipitation  
Precipitation 0.86 in 0.15 in 3.98 in (1981)
Month to date precipitation 3.11 1.53  
Year to date precipitation 5.16 5.77  
Snow  
Snow 0.00 in 0.00 in 0.00 in (2002)
Month to date snowfall 0.0 0.0  
Since 1 July snowfall 0.0 0.5  
Snow Depth -    
Sea Level Pressure  
Sea Level Pressure 30.21 in    
Wind  
Wind Speed 8 mph (ESE)    
Max Wind Speed 21 mph    
Max Gust Speed 26 mph    
Visibility 9 miles    
Events Rain    
T = Trace of Precipitation, MM = Missing Value Source: NWS Daily Summary

Daily Weather History Graph

Daily Weather History Graph

Search for Another Location

Airport:

Trip Planner

Search our weather history database for the weather conditions in past years. The results will help you decide how hot, cold, wet, or windy it might be!

Date:

Astronomy

Feb. 10, 2013 Rise Set
Actual Time 7:22 AM EST 6:16 PM EST
Civil Twilight 6:56 AM EST 6:41 PM EST
Nautical Twilight 6:27 AM EST 7:10 PM EST
Astronomical Twilight 5:58 AM EST 7:39 PM EST
Moon 7:15 AM EST (2/10) 6:59 PM EST (2/10)
Length of Visible Light 11h 44m
Length of Day
10h 53m
New Moon, 0% of the Moon is Illuminated
Feb 10
New Moon
Feb 17
First Quarter
Feb 25
Full
Mar 4
Last Quarter
Mar 11
New

Hourly Weather History & Observations

Time (EST) Temp. Windchill Dew Point Humidity Pressure Visibility Wind Dir Wind Speed Gust Speed Precip Events Conditions
12:53 AM 44.1 °F 42.5 °F 34.0 °F 68% 30.27 in 10.0 mi SE 3.5 mph - N/A   Clear
1:53 AM 42.1 °F - 35.1 °F 76% 30.28 in 10.0 mi Calm Calm - N/A   Clear
2:53 AM 39.0 °F - 34.0 °F 82% 30.28 in 10.0 mi Calm Calm - N/A   Clear
3:53 AM 36.0 °F - 33.1 °F 89% 30.27 in 10.0 mi Calm Calm - N/A   Clear
4:53 AM 36.0 °F 33.3 °F 35.1 °F 97% 30.27 in 10.0 mi ESE 3.5 mph - N/A   Clear
5:53 AM 37.0 °F - 33.1 °F 86% 30.29 in 10.0 mi Calm Calm - N/A   Clear
6:53 AM 37.0 °F - 36.0 °F 96% 30.31 in 10.0 mi Calm Calm - N/A   Clear
7:53 AM 42.1 °F - 37.9 °F 85% 30.30 in 10.0 mi Calm Calm - N/A   Clear
8:53 AM 46.0 °F 43.1 °F 41.0 °F 83% 30.29 in 10.0 mi East 5.8 mph - N/A   Clear
9:53 AM 53.1 °F - 42.1 °F 66% 30.32 in 10.0 mi SE 10.4 mph 19.6 mph N/A   Scattered Clouds
10:53 AM 55.9 °F - 45.0 °F 67% 30.32 in 10.0 mi SE 13.8 mph - N/A   Mostly Cloudy
11:53 AM 60.1 °F - 48.0 °F 64% 30.29 in 10.0 mi SE 12.7 mph - N/A   Mostly Cloudy
12:53 PM 64.0 °F - 48.9 °F 58% 30.23 in 10.0 mi SE 15.0 mph 23.0 mph N/A   Partly Cloudy
1:53 PM 66.0 °F - 50.0 °F 56% 30.19 in 10.0 mi SE 16.1 mph 20.7 mph N/A   Scattered Clouds
2:53 PM 66.9 °F - 51.1 °F 57% 30.15 in 10.0 mi SSE 13.8 mph 25.3 mph N/A   Overcast
3:53 PM 66.9 °F - 51.1 °F 57% 30.13 in 10.0 mi SE 13.8 mph 25.3 mph N/A   Overcast
4:53 PM 66.9 °F - 51.1 °F 57% 30.12 in 10.0 mi SSE 10.4 mph 19.6 mph N/A   Overcast
5:53 PM 66.9 °F - 50.0 °F 54% 30.09 in 10.0 mi SSE 10.4 mph 17.3 mph N/A   Mostly Cloudy
6:53 PM 66.0 °F - 51.1 °F 59% 30.08 in 10.0 mi SSE 10.4 mph - N/A   Overcast
7:53 PM 64.9 °F - 52.0 °F 63% 30.08 in 10.0 mi SSE 10.4 mph - N/A   Overcast
8:53 PM 64.0 °F - 53.1 °F 67% 30.09 in 10.0 mi SSE 10.4 mph - 0.00 in Rain Light Rain
9:53 PM 57.9 °F - 57.9 °F 100% 30.15 in 3.0 mi North 10.4 mph - 0.19 in Rain Rain
10:09 PM 57.2 °F - 57.2 °F 100% 30.19 in 3.0 mi North 9.2 mph - 0.06 in Rain Heavy Rain
10:18 PM 57.2 °F - 57.2 °F 100% 30.19 in 2.0 mi North 9.2 mph - 0.16 in Rain Heavy Rain
10:35 PM 57.2 °F - 57.2 °F 100% 30.21 in 2.5 mi North 8.1 mph - 0.29 in Rain Heavy Rain
10:53 PM 57.0 °F - 57.0 °F 100% 30.18 in 3.0 mi ENE 11.5 mph - 0.42 in Rain Heavy Rain
11:53 PM 57.0 °F - 57.0 °F 100% 30.16 in 6.0 mi NE 9.2 mph - 0.25 in Rain Light Rain